If you wish to contribute or participate in the discussions about articles you are invited to join SKYbrary as a registered user

 Actions

Ingeniero Aeronautico Ambrosio Taravella International Airport

From SKYbrary Wiki

SACO
Airport
ICAO: SACO – IATA: COR
Summary
Name Ingeniero Aeronautico Ambrosio Taravella International Airport
Region South America and Caribbean
Territory Argentina AR.gif
Location Cordoba, Cordoba
Serving Cordoba
Elevation 488.899 m
1,604 ft
1,604 ft488.899 m
Type medium airport
Coordinates 31° 19' 25.03" S, 64° 12' 28.63" W
Runways
Designator Length Width Surface ROPS
18/36 3200 m10,498.688 ft
45 m147.638 ft
CON yes/yes
5/23 2200 m7,217.848 ft
45 m147.638 ft
ASP yes/yes


METAR
Observation SACO 252200Z 09004KT 9999 VCSH FEW045 FEW050CB 23/17 Q1014 NOSIG
Station Cordoba Aerodrome
Date/Time 25 February 2020 22:00:00
Wind direction 90°
Wind speed 04 kts
Lowest cloud amount few clouds
Temperature 23°C
Dew point 17°C
Humidity 69%
QNH 1014 hPa
Weather condition in vicinity: showers

Airport, more commonly known as Pajas Blancas, is 9km 4.86 nm
9,000 m
29,527.559 ft
north of the centre of the city of Cordoba, Argentina.

Climatology

Humid subtropical climate (Köppen climate classification Cwa).

Maps

Terrain

Loading map...

Airport Layout

Loading map...


Accidents & Serious Incidents at or in vicinity of SACO

None on SKYbrary